Вернуться в каталог

HAIKOU

АктивенСвязьSSO
NORAD 63987·PAYLOAD·🇨🇳 China
Это название спутника еще не подтверждено официальными источниками.

Запущен May 14, 2025 с Jiuquan Satellite Launch Center

Loading…

Ближайшие Пролёты (ближайшие 24 часа)

TLE

СвежийSource: Space-Track

Эпоха: Sep 14, 2026, 12:53 UTC

1 63987U 25100F   26257.53695877  .00010559  00000-0  47425-3 0  9998
2 63987  97.3561 328.2680 0007640  12.2505 347.8915 15.21314843 74210

Отслеживайте HAIKOU в реальном времени с AllMySat

Download on the App Store